Jefferson, NC

8:56 AM EDT on March 27, 2017 (GMT -0400)
Ashe County

Weather History for KGEV - December, 1998

Change the Weather History Date:

Monday, December 7, 1998

  Actual Average Record
Temperature  
Mean Temperature 64 °F -  
Max Temperature 75 °F 47 °F 75 °F (1998)
Min Temperature 53 °F 23 °F 0 °F (1977)
Degree Days  
Heating Degree Days 1    
Growing Degree Days 14 (Base 50)    
Moisture  
Dew Point 50 °F    
Average Humidity 67    
Maximum Humidity 88    
Minimum Humidity 41    
Precipitation  
Precipitation 0.00 in - - ()
Sea Level Pressure  
Sea Level Pressure 30.08 in    
Wind  
Wind Speed 4 mph (WNW)    
Max Wind Speed 15 mph    
Max Gust Speed 137 mph    
Visibility 10 miles    
Events      
Averages and records for this station are not official NWS values.
T = Trace of Precipitation, MM = Missing Value Source: NWS Daily Summary

Daily Weather History Graph

Daily Weather History Graph

Search for Another Location

Airport or City:

Trip Planner

Search our weather history database for the weather conditions in past years. The results will help you decide how hot, cold, wet, or windy it might be!

Date:

Astronomy

Dec. 07, 1998 Rise Set
Actual Time 7:24 AM EST 5:10 PM EST
Civil Twilight 6:55 AM EST 5:38 PM EST
Nautical Twilight 6:23 AM EST 6:10 PM EST
Astronomical Twilight 5:52 AM EST 6:42 PM EST
Moon 9:40 PM EST (12/7) 10:55 AM EST (12/7)
Length of Visible Light 10h 43m
Length of Day
9h 46m
Waning Gibbous, 79% of the Moon is Illuminated
Dec 7
Waning Gibbous
Dec 10
Last Quarter
Dec 18
New
Dec 26
First Quarter
Jan 1
Full

Hourly Weather History & Observations

Time (EST) Temp. Dew Point Humidity Pressure Visibility Wind Dir Wind Speed Gust Speed Precip Events Conditions
12:15 AM 57.2 °F 50.0 °F 77% 30.08 in 10.0 mi Calm Calm - N/A   Clear
12:35 AM 57.2 °F 50.0 °F 77% 30.08 in 10.0 mi NNE 3.5 mph - N/A   Clear
12:55 AM 57.2 °F 50.0 °F 77% 30.08 in 10.0 mi SE 3.5 mph - N/A   Clear
1:15 AM 55.4 °F 50.0 °F 82% 30.07 in 10.0 mi ESE 3.5 mph - N/A   Clear
1:35 AM 55.4 °F 50.0 °F 82% 30.06 in 10.0 mi ESE 3.5 mph - N/A   Clear
1:55 AM 55.4 °F 50.0 °F 82% 30.06 in 10.0 mi NE 4.6 mph - N/A   Clear
2:15 AM 55.4 °F 50.0 °F 82% 30.06 in 10.0 mi Calm Calm - N/A   Clear
2:35 AM 55.4 °F 50.0 °F 82% 30.06 in 10.0 mi North - - N/A   Clear
2:55 AM 55.4 °F 50.0 °F 82% 30.07 in 10.0 mi NE 3.5 mph 85.2 mph N/A   Clear
3:15 AM 55.4 °F 48.2 °F 77% 30.07 in 10.0 mi WNW 3.5 mph - N/A   Clear
3:35 AM 55.4 °F 48.2 °F 77% 30.06 in 10.0 mi ENE 11.5 mph - N/A   Clear
3:55 AM 55.4 °F 48.2 °F 77% 30.06 in 10.0 mi East 4.6 mph - N/A   Clear
4:15 AM 55.4 °F 50.0 °F 82% 30.06 in 10.0 mi ENE 3.5 mph - N/A   Clear
4:35 AM 55.4 °F 50.0 °F 82% 30.07 in 10.0 mi Calm Calm - N/A   Clear
4:55 AM 55.4 °F 50.0 °F 82% 30.06 in 10.0 mi ENE 6.9 mph 108.2 mph N/A   Clear
5:15 AM 55.4 °F 50.0 °F 82% 30.07 in 10.0 mi Calm Calm - N/A   Clear
5:35 AM 55.4 °F 50.0 °F 82% 30.07 in 10.0 mi Calm Calm - N/A   Clear
5:55 AM 53.6 °F 48.2 °F 82% 30.07 in 10.0 mi Calm Calm - N/A   Clear
6:15 AM 53.6 °F 50.0 °F 88% 30.07 in 10.0 mi Calm Calm - N/A   Mostly Cloudy
6:35 AM 55.4 °F 48.2 °F 77% 30.08 in 10.0 mi Calm Calm - N/A   Mostly Cloudy
6:55 AM 55.4 °F 48.2 °F 77% 30.08 in 10.0 mi Calm Calm - N/A   Scattered Clouds
7:15 AM 55.4 °F 48.2 °F 77% 30.08 in 10.0 mi North - - N/A   Mostly Cloudy
7:35 AM 55.4 °F 46.4 °F 72% 30.09 in 10.0 mi Calm Calm - N/A   Overcast
7:55 AM 55.4 °F 46.4 °F 72% 30.09 in 10.0 mi North - - N/A   Overcast
8:15 AM 55.4 °F 46.4 °F 72% 30.09 in 10.0 mi ENE 3.5 mph - N/A   Overcast
8:35 AM 55.4 °F 48.2 °F 77% 30.10 in 10.0 mi North - - N/A   Overcast
8:55 AM 57.2 °F 50.0 °F 77% 30.10 in 10.0 mi Calm Calm - N/A   Overcast
9:15 AM 57.2 °F 48.2 °F 72% 30.10 in 10.0 mi North - - N/A   Scattered Clouds
9:35 AM 60.8 °F 50.0 °F 68% 30.10 in 10.0 mi Calm Calm - N/A   Scattered Clouds
9:55 AM 60.8 °F 50.0 °F 68% 30.10 in 10.0 mi North - - N/A   Clear
10:15 AM 62.6 °F 50.0 °F 63% 30.10 in 10.0 mi East 4.6 mph - N/A   Clear
10:35 AM 64.4 °F 51.8 °F 64% 30.10 in 10.0 mi Calm Calm - N/A   Clear
10:55 AM 69.8 °F 51.8 °F 53% 30.09 in 10.0 mi ESE 6.9 mph - N/A   Clear
11:15 AM 71.6 °F 48.2 °F 43% 30.09 in 10.0 mi WSW 10.4 mph 136.9 mph N/A   Scattered Clouds
11:35 AM 71.6 °F 48.2 °F 43% 30.08 in 10.0 mi WSW 9.2 mph 18.4 mph N/A   Scattered Clouds
11:55 AM 71.6 °F 48.2 °F 43% 30.08 in 10.0 mi West 10.4 mph 16.1 mph N/A   Scattered Clouds
12:15 PM 75.2 °F 50.0 °F 41% 30.07 in 10.0 mi West 15.0 mph 23.0 mph N/A   Scattered Clouds
12:35 PM 73.4 °F 48.2 °F 41% 30.07 in 10.0 mi West 10.4 mph 20.7 mph N/A   Mostly Cloudy
12:55 PM 71.6 °F 48.2 °F 43% 30.06 in 10.0 mi West 10.4 mph 17.3 mph N/A   Overcast
1:15 PM 71.6 °F 48.2 °F 43% 30.06 in 10.0 mi WSW 9.2 mph 20.7 mph N/A   Overcast
1:35 PM 71.6 °F 48.2 °F 43% 30.06 in 10.0 mi West 9.2 mph - N/A   Overcast
1:55 PM 71.6 °F 50.0 °F 46% 30.06 in 10.0 mi WSW 5.8 mph - N/A   Overcast
2:15 PM 69.8 °F 51.8 °F 53% 30.06 in 10.0 mi Calm Calm - N/A   Overcast
2:35 PM 69.8 °F 48.2 °F 46% 30.06 in 10.0 mi West 10.4 mph 21.9 mph N/A   Overcast
2:55 PM 71.6 °F 50.0 °F 46% 30.06 in 10.0 mi West 5.8 mph - N/A   Mostly Cloudy
3:15 PM 69.8 °F 48.2 °F 46% 30.07 in 10.0 mi West 10.4 mph - N/A   Mostly Cloudy
3:35 PM 69.8 °F 50.0 °F 49% 30.07 in 10.0 mi West 5.8 mph - N/A   Scattered Clouds
3:55 PM 69.8 °F 50.0 °F 49% 30.07 in 10.0 mi West 4.6 mph - N/A   Clear
4:15 PM 69.8 °F 50.0 °F 49% 30.08 in 10.0 mi West 8.1 mph - N/A   Clear
4:35 PM 69.8 °F 51.8 °F 53% 30.08 in 10.0 mi West 6.9 mph - N/A   Scattered Clouds
4:55 PM 69.8 °F 51.8 °F 53% 30.09 in 10.0 mi Calm Calm - N/A   Scattered Clouds
5:15 PM 68.0 °F 51.8 °F 56% 30.09 in 10.0 mi West 3.5 mph - N/A   Scattered Clouds
5:35 PM 68.0 °F 51.8 °F 56% 30.09 in 10.0 mi Calm Calm - N/A   Mostly Cloudy
5:55 PM 66.2 °F 53.6 °F 64% 30.09 in 10.0 mi Calm Calm - N/A   Scattered Clouds
6:15 PM 64.4 °F 53.6 °F 68% 30.10 in 10.0 mi Calm Calm - N/A   Clear
6:35 PM 62.6 °F 51.8 °F 68% 30.10 in 10.0 mi ESE 3.5 mph - N/A   Clear
7:35 PM 60.8 °F 53.6 °F 77% 30.11 in 10.0 mi North - - N/A   Overcast
7:55 PM 60.8 °F 53.6 °F 77% 30.11 in 10.0 mi Calm Calm - N/A   Overcast
8:15 PM 60.8 °F 55.4 °F 82% 30.11 in 10.0 mi Calm Calm - N/A   Overcast
8:35 PM 60.8 °F 55.4 °F 82% 30.10 in 10.0 mi North - - N/A   Overcast
8:55 PM 60.8 °F 55.4 °F 82% 30.12 in 10.0 mi WNW 8.1 mph - N/A   Scattered Clouds
9:15 PM 60.8 °F 55.4 °F 82% 30.13 in 10.0 mi Calm Calm - N/A   Scattered Clouds
9:35 PM 60.8 °F 55.4 °F 82% 30.13 in 10.0 mi ENE 9.2 mph - N/A   Mostly Cloudy
9:55 PM 60.8 °F 55.4 °F 82% 30.12 in 7.0 mi ENE 3.5 mph - N/A   Mostly Cloudy
10:15 PM 60.8 °F 57.2 °F 88% 30.12 in 7.0 mi Calm Calm - N/A   Overcast
10:35 PM 60.8 °F 57.2 °F 88% 30.12 in 7.0 mi Calm Calm - N/A   Overcast
10:55 PM 60.8 °F 57.2 °F 88% 30.12 in 7.0 mi NE 4.6 mph - N/A   Overcast
11:15 PM 59.0 °F 55.4 °F 88% 30.12 in 5.0 mi Calm Calm - 0.00 in Fog , Rain Light Rain
11:35 PM 59.0 °F 55.4 °F 88% 30.12 in 3.5 mi ESE 3.5 mph - 0.00 in Fog Light Drizzle
11:55 PM 59.0 °F 55.4 °F 88% 30.12 in 4.0 mi North - - 0.00 in Fog Light Drizzle